Vancleve, KY

8:34 AM EST on December 04, 2016 (GMT -0500)
Carroll

Weather History for KJKL - September, 2011

Change the Weather History Date:

Monday, September 5, 2011

  Actual Average Record
Temperature  
Mean Temperature 63 °F 72 °F  
Max Temperature 66 °F 82 °F 95 °F (2007)
Min Temperature 59 °F 62 °F 46 °F (1997)
Degree Days  
Heating Degree Days 2 0  
Month to date heating degree days 2 0  
Since 1 July heating degree days 2 2  
Cooling Degree Days 0 7  
Month to date cooling degree days 66 37  
Year to date cooling degree days 1200 1015  
Growing Degree Days 13 (Base 50)    
Moisture  
Dew Point 62 °F    
Average Humidity 95    
Maximum Humidity 100    
Minimum Humidity 90    
Precipitation  
Precipitation 0.99 in 0.10 in 0.99 in (2011)
Month to date precipitation 1.34 0.53  
Year to date precipitation 44.24 34.08  
Snow  
Snow 0.00 in 0.00 in - ()
Month to date snowfall 0.0 0.0  
Since 1 July snowfall 0.0 0.0  
Since 1 September snowfall 0.0 0.0  
Snow Depth 0.00 in    
Sea Level Pressure  
Sea Level Pressure 29.85 in    
Wind  
Wind Speed 1 mph (North)    
Max Wind Speed 7 mph    
Max Gust Speed 20 mph    
Visibility 4 miles    
Events Fog , Rain    
T = Trace of Precipitation, MM = Missing Value Source: NWS Daily Summary

Daily Weather History Graph

Daily Weather History Graph

Search for Another Location

Airport or City:

Trip Planner

Search our weather history database for the weather conditions in past years. The results will help you decide how hot, cold, wet, or windy it might be!

Date:

Astronomy

Sep. 05, 2011 Rise Set
Actual Time 7:06 AM EDT 7:56 PM EDT
Civil Twilight 6:39 AM EDT 8:23 PM EDT
Nautical Twilight 6:08 AM EDT 8:54 PM EDT
Astronomical Twilight 5:35 AM EDT 9:27 PM EDT
Moon 3:35 PM EDT (9/5) 12:27 AM EDT (9/5)
Length of Visible Light 13h 43m
Length of Day
12h 50m
First Quarter, 60% of the Moon is Illuminated
Sep 5
First Quarter
Sep 12
Full
Sep 20
Last Quarter
Sep 27
New
Oct 3
First Quarter

Hourly Weather History & Observations

Time (EDT) Temp. Dew Point Humidity Pressure Visibility Wind Dir Wind Speed Gust Speed Precip Events Conditions
12:05 AM 66.2 °F 64.4 °F 94% 29.93 in 1.0 mi Calm Calm - 0.00 in Rain Light Rain
12:11 AM 66.2 °F 64.4 °F 94% 29.93 in 2.0 mi Calm Calm - 0.00 in Rain Light Rain
12:19 AM 66.2 °F 64.4 °F 94% 29.93 in 5.0 mi Calm Calm - 0.00 in Rain Light Rain
12:33 AM 66.2 °F 64.4 °F 94% 29.92 in 2.0 mi Calm Calm - 0.01 in Rain Light Rain
12:45 AM 66.2 °F 64.4 °F 94% 29.91 in 1.5 mi Calm Calm - 0.02 in Rain Light Rain
12:48 AM 66.2 °F 64.4 °F 94% 29.91 in 2.0 mi Calm Calm - 0.02 in Rain Light Rain
12:53 AM 66.9 °F 64.9 °F 93% 29.86 in 1.5 mi Calm Calm - 0.02 in Rain Light Rain
1:03 AM 66.2 °F 64.4 °F 94% 29.90 in 2.0 mi Calm Calm - 0.00 in Rain Light Rain
1:17 AM 66.2 °F 64.4 °F 94% 29.90 in 1.5 mi Calm Calm - 0.00 in Rain Light Rain
1:30 AM 66.2 °F 64.4 °F 94% 29.89 in 0.5 mi Calm Calm - 0.00 in Fog , Rain Light Rain
1:38 AM 66.2 °F 64.4 °F 94% 29.89 in 0.5 mi Calm Calm - 0.00 in Fog , Rain Light Rain
1:53 AM 66.0 °F 64.9 °F 96% 29.84 in 0.2 mi Calm Calm - 0.00 in Fog , Rain Light Rain
2:53 AM 66.0 °F 64.9 °F 96% 29.82 in 0.5 mi Calm Calm - 0.02 in Fog , Rain Light Rain
3:53 AM 66.0 °F 64.9 °F 96% 29.82 in 0.5 mi Calm Calm - 0.00 in Fog , Rain Light Rain
4:33 AM 66.2 °F 64.4 °F 94% 29.85 in 1.5 mi Calm Calm - 0.02 in Rain Light Rain
4:35 AM 66.2 °F 64.4 °F 94% 29.85 in 2.0 mi Calm Calm - 0.02 in Rain Light Rain
4:44 AM 66.2 °F 64.4 °F 94% 29.85 in 4.0 mi Calm Calm - 0.02 in Rain Light Rain
4:53 AM 66.0 °F 64.0 °F 93% 29.81 in 4.0 mi Calm Calm - 0.03 in Rain Light Rain
5:53 AM 66.0 °F 64.0 °F 93% 29.80 in 5.0 mi Calm Calm - 0.03 in Rain Light Rain
6:01 AM 66.2 °F 64.4 °F 94% 29.84 in 1.8 mi Calm Calm - 0.00 in Rain Light Rain
6:05 AM 66.2 °F 64.4 °F 94% 29.84 in 1.5 mi Calm Calm - 0.00 in Rain Light Rain
6:22 AM 66.2 °F 64.4 °F 94% 29.84 in 0.5 mi Calm Calm - 0.00 in Fog , Rain Light Rain
6:35 AM 66.2 °F 64.4 °F 94% 29.84 in 1.2 mi Calm Calm - 0.00 in Rain Light Rain
6:53 AM 66.2 °F 64.4 °F 94% 29.84 in 1.5 mi Calm Calm - N/A Rain Light Rain
7:12 AM 66.2 °F 64.4 °F 94% 29.84 in 2.0 mi Calm Calm - 0.00 in Rain Light Rain
7:35 AM 66.2 °F 64.4 °F 94% 29.84 in 0.8 mi Calm Calm - 0.03 in Rain Light Rain
7:53 AM 66.2 °F 64.4 °F 94% 29.84 in 0.8 mi Calm Calm - N/A Rain Rain
8:11 AM 64.4 °F 64.4 °F 100% 29.83 in 2.0 mi Calm Calm - N/A Rain Light Rain
8:22 AM 64.4 °F 64.4 °F 100% 29.83 in 3.0 mi Calm Calm - 0.02 in Rain Light Rain
8:32 AM 64.4 °F 64.4 °F 100% 29.84 in 2.5 mi Calm Calm - 0.03 in Rain Light Rain
8:39 AM 64.4 °F 64.4 °F 100% 29.84 in 5.0 mi Calm Calm - 0.03 in Rain Light Rain
8:53 AM 64.4 °F 64.4 °F 100% 29.84 in 2.5 mi Calm Calm - N/A Rain Light Rain
9:01 AM 64.4 °F 64.4 °F 100% 29.84 in 5.0 mi Calm Calm - 0.01 in Rain Light Rain
9:15 AM 64.4 °F 62.6 °F 94% 29.84 in 6.0 mi Calm Calm - 0.02 in Rain Light Rain
9:22 AM 64.4 °F 62.6 °F 94% 29.84 in 6.0 mi Variable 3.5 mph - 0.03 in Rain Light Rain
9:30 AM 64.4 °F 62.6 °F 94% 29.85 in 6.0 mi Calm Calm - 0.04 in Rain Light Rain
9:53 AM 64.4 °F 62.6 °F 94% 29.85 in 5.0 mi Calm Calm - N/A Rain Rain
10:09 AM 64.4 °F 62.6 °F 94% 29.85 in 4.0 mi Calm Calm - 0.03 in Rain Rain
10:53 AM 63.0 °F 61.0 °F 93% 29.83 in 10.0 mi Calm Calm - 0.07 in Rain Light Rain
11:26 AM 62.6 °F 60.8 °F 94% 29.86 in 9.0 mi Calm Calm - 0.01 in Rain Light Rain
11:53 AM 62.1 °F 60.1 °F 93% 29.83 in 9.0 mi Calm Calm - 0.02 in Rain Light Rain
12:14 PM 62.6 °F 60.8 °F 94% 29.86 in 8.0 mi Variable 3.5 mph - 0.02 in Rain Light Rain
12:53 PM 62.6 °F 59.0 °F 88% 29.86 in 6.0 mi Variable 3.5 mph - N/A Rain Light Rain
1:19 PM 60.8 °F 59.0 °F 94% 29.86 in 5.0 mi Variable 4.6 mph - 0.03 in Rain Light Rain
1:53 PM 60.1 °F 57.9 °F 93% 29.83 in 5.0 mi Variable 3.5 mph - 0.09 in Rain Light Rain
2:16 PM 60.8 °F 57.2 °F 88% 29.86 in 8.0 mi Variable 3.5 mph - 0.02 in Rain Light Rain
2:53 PM 60.1 °F 57.9 °F 93% 29.83 in 9.0 mi Variable 3.5 mph - 0.03 in Rain Light Rain
3:53 PM 60.1 °F 57.0 °F 90% 29.83 in 8.0 mi Calm Calm - 0.02 in Rain Light Rain
4:53 PM 60.1 °F 57.0 °F 90% 29.83 in 7.0 mi Calm Calm - 0.03 in Rain Light Rain
5:05 PM 60.8 °F 57.2 °F 88% 29.84 in 5.0 mi Calm Calm - 0.02 in Rain Light Rain
5:16 PM 60.8 °F 57.2 °F 88% 29.85 in 7.0 mi Calm Calm - 0.03 in Rain Light Rain
5:53 PM 60.1 °F 57.9 °F 93% 29.83 in 9.0 mi Calm Calm - 0.04 in Rain Light Rain
6:40 PM 60.8 °F 57.2 °F 88% 29.87 in 4.0 mi Calm Calm - 0.07 in Rain Rain
6:53 PM 60.1 °F 57.9 °F 93% 29.84 in 5.0 mi Variable 3.5 mph - 0.08 in Rain Light Rain
7:43 PM 60.8 °F 57.2 °F 88% 29.86 in 6.0 mi Calm Calm - 0.08 in Rain Rain
7:51 PM 60.8 °F 57.2 °F 88% 29.86 in 7.0 mi Variable 3.5 mph - 0.10 in Rain Light Rain
7:53 PM 60.1 °F 57.9 °F 93% 29.84 in 8.0 mi Calm Calm - 0.10 in Rain Light Rain
8:53 PM 60.1 °F 57.9 °F 93% 29.86 in 8.0 mi Calm Calm - 0.05 in Rain Light Rain
9:45 PM 60.8 °F 57.2 °F 88% 29.87 in 8.0 mi Calm Calm - 0.02 in Rain Light Rain
9:53 PM 60.1 °F 57.9 °F 93% 29.85 in 7.0 mi Variable 3.5 mph - 0.03 in Rain Light Rain
10:53 PM 60.1 °F 57.9 °F 93% 29.84 in 8.0 mi Variable 4.6 mph - 0.05 in Rain Light Rain
11:03 PM 60.8 °F 57.2 °F 88% 29.87 in 7.0 mi Calm Calm - 0.02 in Rain Light Rain
11:53 PM 60.8 °F 57.2 °F 88% 29.86 in 7.0 mi Calm Calm - N/A Rain Light Rain